NOAA 14 DEB

Satellite information

Favourite Embed

Satellite Type and Status

DEBRISIN ORBIT

Key statistics

Satellite NOAA 14 DEB at a glance.

Uptime

11307

Days in orbit

Revolutions

≈ 14.3

Per day

Orbit

SSO

Sun Synchronous Orbit

Inclination

98.6

Latest

Satellite identification and parameters

Extended collection of information and parameters for NOAA 14 DEB.

Object identification

Identified? True

Debris? True

Object name: NOAA 14 DEB

International designator: 1994-089D

Object number (NORAD): 38732

Object ID (CCSDS): 38732

Country: UNITED STATES OF AMERICA (US)

Current information (Y/N): Y

RCS size: MEDIUM

Orbital parameters

Period: 100.446 minutes

Inclination: 98.6381 deg

SMA: 7157.841 km

Apoapsis: 787.734 km

Periapsis: 771.677 km

RAAN: 76.0732 deg

Eccentricy: 0.0011216

Argument of periapsis: 217.3973 deg

Mean anomaly: 142.6431 deg

Mean motion: 14.33605754 rev/day

Mean motion (dot): 0.00005125 rev/day2

B* drag term: 0.001863837 1/REarth

Two-line elements (TLE)

Creation date: Dec. 12, 2025, 10:14 a.m.

Reference frame: TEME

Reference center: EARTH

Epoch: Dec. 12, 2025, 6:35 a.m. UTC

TLE line 0: 0 NOAA 14 DEB

TLE line 1: 1 38732U 94089D 25346.27473176 .00005125 00000-0 18638-2 0 9991

TLE line 2: 2 38732 98.6381 76.0732 0011216 217.3973 142.6431 14.33605754694387

Live tracking on map

Real-time ground track for satellite NOAA 14 DEB.

In-orbit conjunctions

A list of the most updated potential collisions computed for object NOAA 14 DEB.

Target Orbit TCA Probability of collision Miss distance Type
COSMOS 1110 LEO 2025-11-28 22:04:29 0.0031354 4.0 (m) PAYLOAD
CZ-6A DEB SSO 2024-08-12 01:17:52 0.0002070855 63.0 (m) DEBRIS

Associated space launch

Fourth generation NOAA meteorological satellite

NOAA 14 DEB was lifted into orbit during the mission ‘Atlas E | NOAA 14’, on board a Atlas E space rocket.

The launch took place on Dec. 30, 1994, 10:02 a.m. from Space Launch Complex 3W.

For more information about the launch, click the button.

Launch to space Atlas E | NOAA 14
Atlas E | NOAA 14

Agency: N/A

Status: Launch Successful

Launch date: Dec. 30, 1994, 10:02 a.m. UTC

Rocket: Atlas E

Launch pad: Space Launch Complex 3W

Location: Vandenberg SFB, CA, USA

...

Latest news about this satellite

There are no fresh news available about this satellite. Check back as we update our databases every day.


Newsletter sign-up

Weekly statistics, charts and insights to help you stay on top of the space industry.